TimeCST,TemperatureF,Dew PointF,Humidity,Sea Level PressureIn,VisibilityMPH,Wind Direction,Wind SpeedMPH,Gust SpeedMPH,PrecipitationIn,Events,Conditions,WindDirDegrees,DateUTC
12:54 AM,16.0,10.9,81,30.18,10.0,Calm,Calm,-,N/A,,Clear,0,2013-01-16 06:54:00
1:54 AM,16.0,10.9,81,30.17,10.0,SSW,4.6,-,N/A,,Clear,210,2013-01-16 07:54:00
2:54 AM,15.1,10.0,80,30.16,10.0,WSW,5.8,-,N/A,,Clear,240,2013-01-16 08:54:00
3:54 AM,15.1,10.0,80,30.13,10.0,SSW,8.1,-,N/A,,Clear,210,2013-01-16 09:54:00
4:54 AM,15.1,9.0,77,30.11,10.0,SW,6.9,-,N/A,,Clear,220,2013-01-16 10:54:00
5:54 AM,14.0,9.0,80,30.11,10.0,WSW,5.8,-,N/A,,Clear,240,2013-01-16 11:54:00
6:54 AM,14.0,9.0,80,30.10,10.0,SSW,8.1,-,N/A,,Clear,200,2013-01-16 12:54:00
7:54 AM,16.0,10.9,81,30.08,10.0,SSW,8.1,-,N/A,,Clear,200,2013-01-16 13:54:00
8:54 AM,19.9,12.9,74,30.09,10.0,SSW,10.4,-,N/A,,Clear,210,2013-01-16 14:54:00
9:54 AM,26.1,15.1,63,30.09,10.0,SW,12.7,-,N/A,,Clear,230,2013-01-16 15:54:00
10:54 AM,30.9,18.0,59,30.06,10.0,SW,13.8,-,N/A,,Clear,220,2013-01-16 16:54:00
11:54 AM,35.1,19.0,52,30.02,10.0,SW,17.3,24.2,N/A,,Clear,230,2013-01-16 17:54:00
12:54 PM,37.0,21.0,52,29.99,10.0,SW,17.3,24.2,N/A,,Clear,230,2013-01-16 18:54:00
1:54 PM,39.2,19.4,45,29.95,10.0,SW,12.7,23.0,N/A,,Partly Cloudy,230,2013-01-16 19:54:00
2:54 PM,39.0,21.0,49,29.99,10.0,SW,15.0,25.3,N/A,,Partly Cloudy,230,2013-01-16 20:54:00
3:54 PM,39.0,19.9,46,30.01,10.0,WSW,12.7,-,N/A,,Overcast,250,2013-01-16 21:54:00
4:54 PM,37.9,21.0,51,30.03,10.0,WSW,11.5,-,N/A,,Scattered Clouds,250,2013-01-16 22:54:00
5:54 PM,35.1,21.9,59,30.07,10.0,WSW,11.5,-,N/A,,Clear,240,2013-01-16 23:54:00
6:54 PM,33.1,21.9,64,30.10,10.0,WSW,8.1,-,N/A,,Clear,240,2013-01-17 00:54:00
7:54 PM,34.0,23.0,64,30.09,10.0,WSW,10.4,-,N/A,,Clear,250,2013-01-17 01:54:00
8:54 PM,34.0,23.0,64,30.10,10.0,WSW,10.4,-,N/A,,Partly Cloudy,250,2013-01-17 02:54:00
9:54 PM,33.1,23.0,66,30.09,10.0,WSW,8.1,-,N/A,,Partly Cloudy,240,2013-01-17 03:54:00
10:54 PM,32.0,24.1,73,30.10,10.0,WSW,6.9,-,N/A,,Mostly Cloudy,240,2013-01-17 04:54:00
11:54 PM,34.0,24.1,67,30.13,10.0,West,5.8,-,N/A,,Overcast,280,2013-01-17 05:54:00